Regional Weather Roundup
Issued by NWS

Home | Current Version | Previous Version | Text Only | Print | Product List | Glossary On
Versions: 1 2 3 4 5 6 7 8 9 10 11 12 13 14 15 16 17 18 19 20 21 22 23 24 25 26 27 28 29 30 31 32 33 34 35 36 37 38 39 40 41 42 43 44 45 46 47 48 49 50
000
ASUS45 KABQ 200010
RWRNM
WEATHER ROUNDUP FOR NEW MEXICO
NATIONAL WEATHER SERVICE ALBUQUERQUE NM
500 PM MST FRI DEC 19 2014

NOTE: "FAIR" MEANS FEW OR NO CLOUDS BELOW 12,000 FEET AGL WITH NO
       SIGNIFICANT WEATHER OR OBSTRUCTIONS TO VISION.

      THIS PRODUCT IS RELEASED AS TWO VERSIONS.  ONE VERSION NEAR
      THE TOP OF THE HOUR CONTAINING PRELIMINARY DATA FROM ALBUQUERQUE
      AND OTHER STATIONS.  A FINAL VERSION WITH ADDITIONAL DATA IS
      ISSUED ABOUT 10 MINUTES AFTER THE HOUR.

NMZ501-503-504-510>518-200100-
NORTHWEST PLATEAU/NORTHCENTRAL MOUNTAINS

CITY           SKY/WX    TMP DP  RH WIND       PRES   REMARKS
FARMINGTON     CLEAR     36  25  64 SW6       30.17S WCI  31
6HR MIN TEMP:  27; 6HR MAX TEMP:  41;

LOS ALAMOS     CLEAR     32  22  67 E6        30.15S WCI  26
SANTA FE       CLEAR     34  21  59 N13       30.13S WCI  25
6HR MIN TEMP:  34; 6HR MAX TEMP:  41;

TAOS           CLEAR     30  18  59 SW5       30.15R WCI  25
ANGEL FIRE     FAIR      26  16  66 W14       30.12R WCI  14

$$
NMZ402-403-502-505>509-200100-
WESTCENTRAL MOUNTAINS/SOUTHWEST MOUNTAINS

CITY           SKY/WX    TMP DP  RH WIND       PRES   REMARKS
GALLUP         PTCLDY    33  28  81 W9        30.19R WCI  25
6HR MIN TEMP:  31; 6HR MAX TEMP:  40;

GRANTS         CLEAR     34  21  58 NE3       30.19S
SILVER CITY    CLEAR     46  30  53 SW6       30.16S

$$
NMZ407-409-411-412-200100-
SOUTHERN DESERTS

CITY           SKY/WX    TMP DP  RH WIND       PRES   REMARKS
LORDSBURG      FAIR      46  32  57 CALM      30.15F
DEMING         CLEAR     50  29  44 CALM      30.14S
6HR MIN TEMP:  44; 6HR MAX TEMP:  52;

LAS CRUCES     CLEAR     48  27  44 NE3       30.15F
HOLLOMAN AFB   CLEAR     47  30  51 NW6       30.13S
ALAMOGORDO     CLEAR     46  28  49 N7        30.14S
T OR C         CLEAR     47  26  44 NE6       30.13F
6HR MIN TEMP:  42; 6HR MAX TEMP:  50;


$$
NMZ519>523-200100-
CENTRAL VALLEYS/CENTRAL HIGHLANDS

CITY           SKY/WX    TMP DP  RH WIND       PRES   REMARKS
ALBUQUERQUE    PTCLDY    41  23  48 NW12      30.17S
6HR MIN TEMP:  40; 6HR MAX TEMP:  45;

DOUBLE EAGLE   PTCLDY    37  23  56 NW12      30.18R WCI  30
MORIARTY ARPT  FAIR      35  21  56 NW12      30.14S WCI  27
6HR MIN TEMP:  35; 6HR MAX TEMP:  44;

CLINES CORNERS CLEAR     32  21  64 NW18      30.09S WCI  20
6HR MIN TEMP:  32; 6HR MAX TEMP:  39;

BELEN          FAIR      40  24  52 N6        30.17S
6HR MIN TEMP:  39; 6HR MAX TEMP:  46;

SOCORRO        FAIR      44  24  46 N5        30.16R
6HR MIN TEMP:  42; 6HR MAX TEMP:  48;


$$
NMZ524>526-539-540-200100-
SOUTHCENTRAL MOUNTAINS

CITY           SKY/WX    TMP DP  RH WIND       PRES   REMARKS
RUIDOSO        CLEAR     36  19  51 NW13      30.15S WCI  27

$$
NMZ527>531-200100-
NORTHEAST HIGHLANDS/NORTHEAST PLAINS

CITY           SKY/WX    TMP DP  RH WIND       PRES   REMARKS
LAS VEGAS      CLEAR     36  15  42 S13       30.05S WCI  27
6HR MIN TEMP:  36; 6HR MAX TEMP:  46;

RATON          CLEAR     38  13  35 S5        30.04R WCI  34
6HR MIN TEMP:  38; 6HR MAX TEMP:  45;

CLAYTON        CLEAR     39  29  67 S10       30.06S WCI  32
6HR MIN TEMP:  39; 6HR MAX TEMP:  50;


$$
NMZ532>537-200100-
EASTCENTRAL PLAINS

CITY           SKY/WX    TMP DP  RH WIND       PRES   REMARKS
TUCUMCARI      CLEAR     38  27  64 E8        30.07F WCI  32
6HR MIN TEMP:  38; 6HR MAX TEMP:  47;

CANNON AFB     CLEAR     43  28  56 NE2       30.09F
6HR MIN TEMP:  40; 6HR MAX TEMP:  47;

CLOVIS AIRPORT CLEAR     43  28  56 CALM      30.09F

$$
NMZ028-029-538-200100-
SOUTHEAST PLAINS

CITY           SKY/WX    TMP DP  RH WIND       PRES   REMARKS
ROSWELL        CLEAR     55  21  26 NW3       30.07S
6HR MIN TEMP:  51; 6HR MAX TEMP:  60;

ARTESIA        CLEAR     54  28  37 SE6       30.09S
CARLSBAD       CLEAR     53  33  46 E6        30.08S
6HR MIN TEMP:  53; 6HR MAX TEMP:  60;

HOBBS          CLEAR     50  23  34 W5        30.11R


$$


USA.gov is the U.S. government's official web portal to all federal, state and local government web resources and services.